Date String (YYYY-MM-DD hh:mm:ss) UTC,Instrument flags,Ambient pressure (hPa),Sample flow (lpm),Bypass flow (lpm),Sample temperature (°C),Ambient temperature (°C),ASC tube jacket temperature (°C),LED temperature (°C),Box temperature (°C),Sample RH (%),Mass concentration (μg/m³),Mass concentration (μg/m³)
DateTimeUTC,F1_M11,P_M11,Q1_M11,Q2_M11,T1_M11,T2_M11,T3_M11,T4_M11,T5_M11,U1_M11,X0_M11,X2_M11
2021-08-13 17:00:00,,0836.5,4.99,0.00,29.5,26.8,00.0,38.5,30.9,31.6,0029.09,0009.84
2021-08-13 17:01:00,,0836.4,5.00,0.00,29.3,26.1,00.0,38.5,30.7,32.2,0031.71,0009.93
2021-08-13 17:02:00,,0836.5,4.99,0.00,29.3,26.3,00.0,38.5,30.8,32.7,0032.37,0009.92
2021-08-13 17:03:00,,0836.5,5.00,0.00,29.2,26.7,00.0,38.4,30.9,33.4,0032.69,0009.90
2021-08-13 17:04:00,,0836.5,5.03,0.00,29.2,27.1,00.0,38.4,31.0,32.7,0033.44,0009.90
2021-08-13 17:05:00,,0836.5,4.99,0.00,29.3,27.5,00.0,38.4,31.1,32.8,0033.06,0009.97
2021-08-13 17:06:00,,0836.5,5.02,0.00,29.3,27.8,00.0,38.4,31.2,33.0,0032.71,0009.93
2021-08-13 17:07:00,,0836.5,4.99,0.00,29.4,28.1,00.0,38.4,31.3,32.9,0032.37,0009.85
2021-08-13 17:08:00,,0836.5,4.99,0.00,29.4,28.3,00.0,38.4,31.3,32.7,0032.70,0009.84
2021-08-13 17:09:00,,0836.4,4.99,0.00,29.5,28.4,00.0,38.4,31.4,32.8,0033.03,0009.89
2021-08-13 17:10:00,,0836.3,5.01,0.00,29.5,27.7,00.0,38.4,31.2,32.7,0031.72,0009.86
2021-08-13 17:11:00,,0836.3,5.00,0.00,29.3,26.3,00.0,38.4,30.7,33.1,0030.34,0009.88
2021-08-13 17:12:00,,0836.3,5.01,0.00,29.2,26.0,00.0,38.4,30.6,33.3,0028.22,0009.79
2021-08-13 17:13:00,,0836.3,4.99,0.00,29.2,26.4,00.0,38.4,30.8,33.6,0027.63,0009.79
2021-08-13 17:14:00,,0836.2,5.00,0.00,29.2,26.8,00.0,38.3,30.8,33.2,0027.69,0009.82
2021-08-13 17:15:00,,0836.2,5.00,0.00,29.2,27.2,00.0,38.3,31.0,32.6,0029.63,0009.85
2021-08-13 17:16:00,,0836.2,4.99,0.00,29.2,27.5,00.0,38.3,31.1,32.4,0030.10,0009.82
2021-08-13 17:17:00,,0836.2,4.99,0.00,29.3,27.8,00.0,38.3,31.1,32.5,0030.67,0009.87
2021-08-13 17:18:00,,0836.2,5.00,0.00,29.3,28.1,00.0,38.3,31.2,33.0,0032.57,0009.93
2021-08-13 17:19:00,,0836.2,5.00,0.00,29.4,28.3,00.0,38.4,31.3,32.7,0031.77,0009.88
2021-08-13 17:20:00,,0836.2,5.01,0.00,29.4,28.5,00.0,38.4,31.4,32.7,0031.69,0009.85
2021-08-13 17:21:00,,0836.2,4.98,0.00,29.5,28.1,00.0,38.4,31.3,32.6,0031.81,0009.89
2021-08-13 17:22:00,,0836.2,5.01,0.00,29.4,26.6,00.0,38.4,30.8,32.9,0032.24,0009.92
2021-08-13 17:23:00,,0836.2,5.01,0.00,29.3,26.1,00.0,38.4,30.7,33.5,0032.29,0009.98
2021-08-13 17:24:00,,0836.2,4.99,0.00,29.2,26.4,00.0,38.4,30.8,33.2,0032.94,0010.04
2021-08-13 17:25:00,,0836.2,5.00,0.00,29.2,26.8,00.0,38.3,30.8,32.9,0032.01,0010.07
2021-08-13 17:26:00,,0836.2,5.00,0.00,29.2,27.2,00.0,38.3,31.0,32.8,0029.12,0010.12
2021-08-13 17:27:00,,0836.2,5.01,0.00,29.2,27.5,00.0,38.3,31.0,32.6,0028.99,0010.12
2021-08-13 17:28:00,,0836.2,5.00,0.00,29.3,27.8,00.0,38.3,31.1,33.0,0028.28,0010.06
2021-08-13 17:29:00,,0836.2,4.99,0.00,29.3,28.1,00.0,38.3,31.2,32.9,0026.43,0010.04
2021-08-13 17:30:00,,0836.1,5.01,0.00,29.4,28.3,00.0,38.3,31.3,32.7,0027.20,0010.04
2021-08-13 17:31:00,,0836.1,4.99,0.00,29.4,28.5,00.0,38.3,31.4,33.0,0027.07,0009.97
2021-08-13 17:32:00,,0836.0,4.99,0.00,29.5,28.3,00.0,38.4,31.3,32.5,0028.12,0009.91
2021-08-13 17:33:00,,0836.0,5.00,0.00,29.4,26.8,00.0,38.3,30.9,32.8,0028.33,0009.93
2021-08-13 17:34:00,,0835.9,5.01,0.00,29.3,26.1,00.0,38.3,30.7,32.8,0028.68,0009.92
2021-08-13 17:35:00,,0835.9,5.00,0.00,29.2,26.3,00.0,38.3,30.7,33.1,0027.93,0009.93
2021-08-13 17:36:00,,0835.9,5.00,0.00,29.2,26.7,00.0,38.3,30.8,33.3,0027.84,0009.88
2021-08-13 17:37:00,,0835.9,5.00,0.00,29.2,27.1,00.0,38.3,30.9,33.0,0028.10,0009.80
2021-08-13 17:38:00,,0835.9,5.00,0.00,29.2,27.5,00.0,38.3,31.0,33.0,0028.32,0009.83
2021-08-13 17:39:00,,0835.9,4.99,0.00,29.3,27.8,00.0,38.3,31.1,32.9,0028.34,0009.91
2021-08-13 17:40:00,,0835.8,5.00,0.00,29.3,28.1,00.0,38.3,31.2,32.8,0028.76,0009.90
2021-08-13 17:41:00,,0835.8,5.01,0.00,29.4,28.3,00.0,38.3,31.3,32.6,0029.68,0009.98
2021-08-13 17:42:00,,0835.8,5.00,0.00,29.4,28.5,00.0,38.3,31.4,32.6,0031.21,0009.99
2021-08-13 17:43:00,,0835.7,5.00,0.00,29.4,27.8,00.0,38.4,31.2,32.6,0031.16,0009.99
2021-08-13 17:44:00,,0835.7,5.01,0.00,29.3,26.3,00.0,38.3,30.7,32.7,0030.87,0009.92
2021-08-13 17:45:00,,0835.7,4.99,0.00,29.2,26.0,00.0,38.3,30.6,33.2,0032.06,0009.89
2021-08-13 17:46:00,,0835.7,5.01,0.00,29.2,26.4,00.0,38.3,30.8,33.4,0032.12,0009.85
2021-08-13 17:47:00,,0835.7,5.00,0.00,29.1,26.8,00.0,38.3,30.9,33.2,0032.62,0009.82
2021-08-13 17:48:00,,0835.7,5.00,0.00,29.2,27.2,00.0,38.2,31.0,33.2,0032.27,0009.80
2021-08-13 17:49:00,,0835.7,4.99,0.00,29.2,27.5,00.0,38.2,31.0,33.2,0033.12,0009.81
2021-08-13 17:50:00,,0835.7,5.01,0.00,29.2,27.8,00.0,38.3,31.1,33.1,0033.05,0009.77
2021-08-13 17:51:00,,0835.7,4.98,0.00,29.3,28.1,00.0,38.3,31.2,32.8,0032.01,0009.75
2021-08-13 17:52:00,,0835.7,5.02,0.00,29.4,28.3,00.0,38.3,31.3,32.6,0030.54,0009.77
2021-08-13 17:53:00,,0835.6,5.01,0.00,29.4,27.9,00.0,38.3,31.2,32.6,0029.53,0009.93
2021-08-13 17:54:00,,0835.6,4.99,0.00,29.3,26.5,00.0,38.3,30.7,32.8,0029.09,0010.03
2021-08-13 17:55:00,,0835.6,5.01,0.00,29.2,25.9,00.0,38.3,30.5,33.3,0028.18,0010.07
2021-08-13 17:56:00,,0835.6,5.00,0.00,29.1,26.2,00.0,38.3,30.7,33.5,0026.38,0010.11
2021-08-13 17:57:00,,0835.6,5.00,0.00,29.1,26.6,00.0,38.2,30.7,33.8,0026.28,0010.18
2021-08-13 17:58:00,,0835.6,4.99,0.00,29.1,27.0,00.0,38.2,30.8,33.2,0026.29,0010.30
2021-08-13 17:59:00,,0835.6,4.99,0.00,29.1,27.4,00.0,38.2,30.9,33.2,0026.98,0010.39
